Miscellaneous Local Product
Issued by NWS Hastings, NE

Home | Current Version | Previous Version | Text Only | Print | Product List | Glossary On
Versions: 1 2 3 4 5 6 7 8 9 10 11 12 13 14 15 16 17 18 19 20 21 22 23 24 25 26 27 28 29 30 31 32 33 34 35 36 37 38 39 40 41 42 43 44 45 46 47 48 49 50
000
AXUS43 KGID 261802
MISGRI

GID CWA HOURLY WEATHER ROUNDUP
NATIONAL WEATHER SERVICE HASTINGS NE
100 PM CDT THU MAY 26 2016

NOTE: "FAIR" INDICATES FEW OR NO CLOUDS BELOW 12,000 FEET WITH NO
SIGNIFICANT WEATHER AND/OR OBSTRUCTIONS TO VISIBILITY.

...SOUTH CENTRAL NEBRASKA...

CITY           SKY/WX    TMP DP  RH WIND       PRES   REMARKS
GRAND ISLAND   MOSUNNY   75  59  57 NE14      29.87F
HASTINGS       MOSUNNY   77  58  51 NE13      29.84F
KEARNEY        PTSUNNY   73  57  56 NE13      29.86F
ORD            CLOUDY    68  55  63 E3        29.88F
YORK           SUNNY     77  61  57 NE12      29.85S
AURORA         SUNNY     77  55  47 NE13      29.86S
LEXINGTON      SUNNY     69  59  70 NE14      29.87F
HOLDREGE       MOSUNNY   72  57  58 NE15      29.85F
HEBRON         PTSUNNY   80  69  70 SE8G16    29.79F

...NEBRASKA PANHANDLE...

CITY           SKY/WX    TMP DP  RH WIND       PRES   REMARKS
CHADRON        SUNNY     69  44  40 SW6       29.90F
ALLIANCE       SUNNY     70  40  33 NW7       29.89F
SCOTTSBLUFF    CLOUDY    69  39  33 VRB3      29.91F
SIDNEY         CLOUDY    60  48  64 NE9       29.93F

...WESTERN AND NORTH CENTRAL NEBRASKA...

CITY           SKY/WX    TMP DP  RH WIND       PRES   REMARKS
VALENTINE      PTSUNNY   71  50  47 S13       29.88F
AINSWORTH      CLOUDY    65  53  64 S3        29.90S
ONEILL         CLOUDY    67  54  62 SE3       29.91F
BROKEN BOW     MOSUNNY   71  55  56 SE8       29.90F
IMPERIAL       SUNNY     72  47  40 E20       29.87F
NORTH PLATTE   SUNNY     72  50  45 SE8       29.89S
MCCOOK         SUNNY     74  54  49 NE20      29.84F

...EASTERN NEBRASKA...

CITY           SKY/WX    TMP DP  RH WIND       PRES   REMARKS
NORFOLK        PTSUNNY   75  57  53 SE8       29.87F
SO SIOUX CITY  SUNNY     77  60  55 E6        29.87F
TEKAMAH        SUNNY     80  57  45 NE7       29.85F
COLUMBUS       SUNNY     77  57  50 NE3       29.87S
ALBION         CLOUDY    73  56  56 SE7       29.88F
OMAHA EPPLEY   MOSUNNY   82  57  42 E10       29.83F
MILLARD        SUNNY     81  57  43 CALM      29.83F
LINCOLN        SUNNY     82  63  52 E12       29.83S
NEBRASKA CITY  SUNNY     80  69  68 SE9       29.82F
BEATRICE       CLOUDY    78  69  73 SE10      29.81S
FALLS CITY     MOSUNNY   79  68  69 SE13G21   29.82F

...NORTHERN KANSAS...

CITY           SKY/WX    TMP DP  RH WIND       PRES   REMARKS
GOODLAND       MOSUNNY   70  53  54 NE22G29   29.84F
HILL CITY      CLOUDY    75  64  68 E12       29.80F
NORTON         MOCLDY    77  52  41 NE13      29.82S
PHILLIPSBURG   CLOUDY    75  64  69 E9        29.80F
SMITH CENTER   CLOUDY    73  66  78 E8        29.80R
BELOIT         MOSUNNY   79  72  78 SE10      29.76F
HAYS           CLOUDY    72  66  83 E12       29.75F
RUSSELL        CLOUDY    77  70  79 SE13      29.74F
CONCORDIA      CLOUDY    80  71  74 SE10      29.77F
SALINA         CLOUDY    82  71  69 S13       29.77F
TOPEKA         MOSUNNY   81  73  76 SE18G29   29.81F



USA.gov is the U.S. government's official web portal to all federal, state and local government web resources and services.